contact:dominique.lefevre@mio.osupytheas.fr, maurice.libes@osupytheas.fr
Project:EMSO Ligure-ouest http://www.emso-fr.org/EMSO-France
Sensor Aquadopp, line 04 Serial AQD8517 
DOI : "https://doi.org/10.17882/74513; https://doi.org/10.17882/83244" 
Title:EMSO Ligure Ouest : Data ligne ALBATROSS capteur AQUADOPP - deploiement 2021
Id,Date,Profondeur,Latitude,Longitude,X_East,Y_North,Z_Up,Amplitude_X,Amplitude_Y,Amplitude_Z,Batterie,SoundSpeed,Heading,Pitch,Roll,Pressure,Temperature,Speed,Direction
, , m, degrees North, degrees East, m.s-1, m.s-1,m.s-1, 1, 1, 1, Volt, m.s-1, degree, degree, degree, dbar, degree_C, m.s-1, degree
01,2022-03-25T21:00:00,500.0,42.79,6.0312,-0.023,0.002,0.014,54.0,48.0,50.0,12.1,1505.2,6.8,-0.2,0.6,451.871,13.47,0.023,275.0
01,2022-03-25T21:30:00,500.0,42.79,6.0312,-0.036,-0.006,0.002,57.0,49.0,50.0,12.1,1505.2,4.6,-0.1,0.7,451.894,13.47,0.036,260.5
01,2022-03-25T22:00:00,500.0,42.79,6.0312,-0.024,-0.004,0.0,52.0,49.0,54.0,12.1,1505.2,331.7,-0.1,0.6,451.883,13.47,0.024,260.5
01,2022-03-25T22:30:00,500.0,42.79,6.0312,-0.03,-0.027,0.006,53.0,48.0,56.0,12.1,1505.2,294.0,-0.2,0.7,451.931,13.47,0.04,228.0
01,2022-03-25T23:00:00,500.0,42.79,6.0312,-0.046,-0.022,0.006,54.0,51.0,50.0,12.1,1505.2,293.5,-0.1,0.7,451.927,13.46,0.05,244.4
01,2022-03-25T23:30:00,500.0,42.79,6.0312,-0.065,-0.026,0.006,55.0,51.0,50.0,12.1,1505.2,294.6,-0.2,0.7,451.934,13.46,0.07,248.2
01,2022-03-26T00:00:00,500.0,42.79,6.0312,-0.058,-0.019,0.022,54.0,49.0,50.0,12.1,1505.2,303.3,-0.2,0.6,451.917,13.46,0.061,251.9
01,2022-03-26T00:30:00,500.0,42.79,6.0312,-0.064,-0.012,0.0,58.0,52.0,50.0,12.1,1505.2,307.1,-0.1,0.7,451.958,13.45,0.065,259.4
01,2022-03-26T01:00:00,500.0,42.79,6.0312,-0.07,-0.01,0.014,54.0,50.0,52.0,12.1,1505.2,303.1,-0.1,0.7,451.966,13.46,0.07,261.9
01,2022-03-26T01:30:00,500.0,42.79,6.0312,-0.07,-0.025,-0.009,56.0,52.0,51.0,12.1,1505.3,297.8,-0.2,0.6,451.964,13.48,0.074,250.4
01,2022-03-26T02:00:00,500.0,42.79,6.0312,-0.097,-0.027,0.014,54.0,50.0,49.0,12.1,1505.3,292.3,-0.2,0.7,451.982,13.49,0.1,254.4
01,2022-03-26T02:30:00,500.0,42.79,6.0312,-0.088,-0.029,0.001,58.0,49.0,52.0,12.1,1505.4,281.4,0.0,0.6,451.974,13.5,0.092,251.8
01,2022-03-26T03:00:00,500.0,42.79,6.0312,-0.098,-0.01,0.002,55.0,52.0,51.0,12.1,1505.4,286.2,-0.2,0.6,452.036,13.5,0.098,264.2
01,2022-03-26T03:30:00,500.0,42.79,6.0312,-0.11,0.021,0.014,55.0,54.0,50.0,12.1,1505.4,304.4,-0.3,0.7,452.0,13.51,0.111,280.8
01,2022-03-26T04:00:00,500.0,42.79,6.0312,-0.103,-0.004,0.005,56.0,52.0,52.0,12.1,1505.4,295.8,-0.2,0.4,452.018,13.51,0.103,267.8
01,2022-03-26T04:30:00,500.0,42.79,6.0312,-0.102,0.028,0.026,56.0,53.0,52.0,12.1,1505.4,312.8,0.1,0.7,451.986,13.51,0.105,285.3
01,2022-03-26T05:00:00,500.0,42.79,6.0312,-0.085,0.046,-0.001,56.0,53.0,55.0,12.1,1505.4,330.7,-0.5,0.9,452.005,13.52,0.096,298.4
01,2022-03-26T05:30:00,500.0,42.79,6.0312,-0.089,0.034,-0.009,56.0,53.0,52.0,12.1,1505.5,312.0,-0.5,0.7,451.973,13.54,0.095,290.9
01,2022-03-26T06:00:00,500.0,42.79,6.0312,-0.072,0.062,-0.002,57.0,52.0,51.0,12.1,1505.5,337.6,-0.5,0.7,451.946,13.55,0.095,310.7
01,2022-03-26T06:30:00,500.0,42.79,6.0312,-0.06,0.061,0.01,56.0,51.0,53.0,12.1,1505.5,331.2,-0.1,0.6,451.937,13.55,0.085,315.5
01,2022-03-26T07:00:00,500.0,42.79,6.0312,-0.059,0.05,0.017,55.0,51.0,53.0,12.1,1505.4,334.0,-0.1,0.6,451.877,13.52,0.077,310.3
01,2022-03-26T07:30:00,500.0,42.79,6.0312,-0.068,0.052,-0.011,56.0,51.0,54.0,12.1,1505.4,341.5,0.0,0.6,451.932,13.52,0.085,307.4
01,2022-03-26T08:00:00,500.0,42.79,6.0312,-0.045,0.052,-0.01,54.0,53.0,54.0,12.1,1505.5,348.2,-0.1,0.6,451.93,13.53,0.068,319.1
01,2022-03-26T08:30:00,500.0,42.79,6.0312,-0.043,0.03,-0.005,56.0,51.0,51.0,12.1,1505.4,349.3,-0.1,0.7,451.93,13.5,0.052,304.9
01,2022-03-26T09:00:00,500.0,42.79,6.0312,-0.038,0.041,0.0,55.0,49.0,52.0,12.1,1505.4,352.4,-0.1,0.5,451.883,13.52,0.055,317.2
01,2022-03-26T09:30:00,500.0,42.79,6.0312,-0.034,0.035,0.018,58.0,54.0,54.0,12.1,1505.5,355.0,-0.2,0.6,451.875,13.54,0.048,315.8
01,2022-03-26T10:00:00,500.0,42.79,6.0312,-0.019,0.041,0.006,55.0,53.0,51.0,12.1,1505.5,5.5,-0.1,0.7,451.909,13.55,0.045,335.1
01,2022-03-26T10:30:00,500.0,42.79,6.0312,-0.025,0.03,0.003,57.0,49.0,51.0,12.1,1505.5,7.7,-0.2,0.7,451.891,13.54,0.039,320.2
01,2022-03-26T11:00:00,500.0,42.79,6.0312,-0.027,0.027,-0.016,57.0,52.0,52.0,12.1,1505.5,10.9,-0.1,0.6,451.905,13.54,0.038,315.0
01,2022-03-26T11:30:00,500.0,42.79,6.0312,-0.027,0.028,0.003,54.0,47.0,52.0,12.1,1505.5,7.3,-0.2,0.6,451.929,13.55,0.038,316.0
01,2022-03-26T12:00:00,500.0,42.79,6.0312,-0.022,0.014,0.021,54.0,54.0,49.0,12.1,1505.5,2.7,-0.1,0.6,451.882,13.55,0.026,302.5
01,2022-03-26T12:30:00,500.0,42.79,6.0312,-0.022,0.011,-0.006,54.0,49.0,53.0,12.1,1505.5,354.9,-0.1,0.6,451.942,13.55,0.024,296.6
01,2022-03-26T13:00:00,500.0,42.79,6.0312,-0.023,0.012,0.02,52.0,49.0,53.0,12.1,1505.4,2.2,-0.2,0.6,451.924,13.52,0.025,297.6
01,2022-03-26T13:30:00,500.0,42.79,6.0312,-0.044,0.005,-0.01,54.0,49.0,47.0,12.1,1505.5,0.0,-0.2,0.6,451.887,13.55,0.044,276.5
01,2022-03-26T14:00:00,500.0,42.79,6.0312,-0.047,0.008,-0.006,55.0,52.0,52.0,12.1,1505.5,342.3,-0.1,0.7,451.884,13.54,0.047,279.7
01,2022-03-26T14:30:00,500.0,42.79,6.0312,-0.061,0.003,0.001,55.0,52.0,57.0,12.1,1505.5,336.3,-0.1,0.6,451.887,13.55,0.061,272.8
01,2022-03-26T15:00:00,500.0,42.79,6.0312,-0.045,0.013,0.01,57.0,52.0,54.0,12.1,1505.6,336.3,-0.2,0.7,451.932,13.56,0.046,286.1
01,2022-03-26T15:30:00,500.0,42.79,6.0312,-0.04,0.005,-0.003,57.0,54.0,52.0,12.1,1505.6,343.7,-0.1,0.6,451.947,13.57,0.04,277.1
01,2022-03-26T16:00:00,500.0,42.79,6.0312,-0.036,0.0,0.021,55.0,53.0,51.0,12.1,1505.5,340.8,-0.2,0.7,451.963,13.55,0.036,270.0
01,2022-03-26T16:30:00,500.0,42.79,6.0312,-0.048,0.001,0.01,55.0,51.0,54.0,12.1,1505.5,340.0,-0.1,0.6,451.93,13.53,0.048,271.2
01,2022-03-26T17:00:00,500.0,42.79,6.0312,-0.057,0.022,0.007,54.0,51.0,51.0,12.1,1505.5,341.5,-0.2,0.6,451.916,13.55,0.061,291.1
01,2022-03-26T17:30:00,500.0,42.79,6.0312,-0.051,0.028,0.014,56.0,48.0,51.0,12.1,1505.5,330.0,-0.1,0.6,451.891,13.55,0.058,298.8
01,2022-03-26T18:00:00,500.0,42.79,6.0312,-0.067,0.016,0.014,57.0,54.0,49.0,12.1,1505.5,327.6,-0.2,0.6,451.906,13.55,0.068,283.4
01,2022-03-26T18:30:00,500.0,42.79,6.0312,-0.06,0.017,0.016,53.0,50.0,52.0,12.1,1505.5,324.4,-0.2,0.6,451.91,13.55,0.062,285.8
01,2022-03-26T19:00:00,500.0,42.79,6.0312,-0.06,0.017,0.012,57.0,49.0,53.0,12.1,1505.5,325.6,-0.2,0.7,451.889,13.55,0.062,285.8
01,2022-03-26T19:30:00,500.0,42.79,6.0312,-0.078,0.02,0.007,56.0,50.0,50.0,12.1,1505.6,322.4,-0.1,0.6,451.869,13.56,0.08,284.4
01,2022-03-26T20:00:00,500.0,42.79,6.0312,-0.073,0.018,0.003,57.0,48.0,52.0,12.1,1505.5,321.6,-0.3,0.8,451.9,13.55,0.075,283.8
01,2022-03-26T20:30:00,500.0,42.79,6.0312,-0.081,0.008,0.011,56.0,51.0,50.0,12.1,1505.5,323.5,-0.1,0.6,451.881,13.54,0.081,275.6
01,2022-03-26T21:00:00,500.0,42.79,6.0312,-0.066,0.023,0.009,54.0,50.0,51.0,12.1,1505.5,325.1,-0.1,0.6,451.861,13.55,0.069,289.2
